Weather History for Flora, IL

Change the Weather History Date:

Sunday, July 21, 2013

  Actual Average (KEVV) Record (KEVV)
Temperature  
Mean Temperature 74 °F 78 °F  
Max Temperature 83 °F 88 °F 103 °F (1901)
Min Temperature 66 °F 68 °F 52 °F (1944)
Degree Days  
Heating Degree Days 0 0  
Month to date heating degree days 0  
Since 1 June heating degree days 6  
Since 1 July heating degree days 0  
Cooling Degree Days 10 13  
Month to date cooling degree days 273  
Year to date cooling degree days 706  
Since 1 June cooling degree days 571  
Growing Degree Days 24 (Base 50)    
Moisture  
Dew Point 69 °F    
Average Humidity 86    
Maximum Humidity 98    
Minimum Humidity 64    
Precipitation  
Precipitation 0.00 in 0.12 in 2.50 in (1969)
Month to date precipitation 2.74  
Year to date precipitation 26.76  
Snow  
Snow 0.00 in 0.00 in - ()
Month to date snowfall 0.0  
Since 1 June snowfall 0.0  
Since 1 July snowfall 0.0  
Snow Depth -    
Sea Level Pressure  
Sea Level Pressure 29.93 in    
Wind  
Wind Speed 1 mph (SSE)    
Max Wind Speed 14 mph    
Max Gust Speed -    
Visibility 8 miles    
Events Thunderstorm    
T = Trace of Precipitation, MM = Missing Value Source: NWS Daily Summary

Daily Weather History Graph

Daily Weather History Graph

Search for Another Location

Airport:

Trip Planner

Search our weather history database for the weather conditions in past years. The results will help you decide how hot, cold, wet, or windy it might be!

Date:

Astronomy

Jul. 21, 2013 Rise Set
Actual Time 5:46 AM CDT 8:13 PM CDT
Civil Twilight 5:15 AM CDT 8:44 PM CDT
Nautical Twilight 4:37 AM CDT 9:21 PM CDT
Astronomical Twilight 3:56 AM CDT 10:03 PM CDT
Moon 7:12 PM CDT (7/21) 4:31 AM CDT (7/21)
Length of Visible Light 15h 28m
Length of Day
14h 27m
Waxing Gibbous, 98% of the Moon is Illuminated
Jul 21
Waxing Gibbous
Jul 22
Full
Jul 29
Last Quarter
Aug 6
New
Aug 14
First Quarter

Hourly Weather History & Observations

Time (CDT) Temp. Heat Index Dew Point Humidity Pressure Visibility Wind Dir Wind Speed Gust Speed Precip Events Conditions
12:15 AM 69.8 °F - 68.5 °F 96% 29.93 in 10.0 mi Calm Calm - N/A   Clear
12:35 AM 69.1 °F - 68.0 °F 96% 29.92 in 10.0 mi Calm Calm - N/A   Clear
12:55 AM 69.1 °F - 68.2 °F 97% 29.92 in 7.0 mi Calm Calm - N/A   Clear
1:15 AM 68.9 °F - 68.0 °F 97% 29.92 in 7.0 mi South 3.5 mph - N/A   Clear
1:52 AM 69.8 °F - 68.0 °F 94% 29.93 in 7.0 mi Calm Calm - N/A   Clear
1:55 AM 68.9 °F - 68.0 °F 97% 29.93 in 7.0 mi Calm Calm - N/A   Clear
2:15 AM 68.9 °F - 68.2 °F 98% 29.93 in 7.0 mi Calm Calm - N/A   Clear
2:35 AM 68.9 °F - 68.0 °F 97% 29.94 in 7.0 mi NW 3.5 mph - N/A   Clear
2:55 AM 68.9 °F - 68.0 °F 97% 29.93 in 7.0 mi Calm Calm - N/A   Clear
3:15 AM 68.5 °F - 67.6 °F 97% 29.93 in 4.0 mi Calm Calm - N/A   Clear
3:35 AM 67.5 °F - 66.6 °F 97% 29.93 in 4.0 mi Calm Calm - N/A   Clear
3:55 AM 67.1 °F - 66.2 °F 97% 29.94 in 4.0 mi SSE 3.5 mph - N/A   Clear
4:15 AM 67.1 °F - 66.4 °F 98% 29.95 in 4.0 mi Calm Calm - N/A   Clear
4:35 AM 66.9 °F - 66.2 °F 98% 29.95 in 3.0 mi SSE 4.6 mph - N/A   Clear
4:55 AM 67.1 °F - 66.4 °F 98% 29.96 in 5.0 mi Calm Calm - N/A   Clear
5:15 AM 67.1 °F - 66.4 °F 98% 29.96 in 5.0 mi Calm Calm - N/A   Clear
5:35 AM 67.1 °F - 66.4 °F 98% 29.95 in 4.0 mi SSE 3.5 mph - N/A   Clear
5:55 AM 67.1 °F - 66.6 °F 98% 29.96 in 3.0 mi Calm Calm - N/A   Clear
6:15 AM 67.3 °F - 66.7 °F 98% 29.96 in 3.0 mi Calm Calm - N/A   Clear
6:35 AM 67.6 °F - 67.1 °F 98% 29.96 in 2.5 mi Calm Calm - N/A   Scattered Clouds
6:55 AM 68.0 °F - 67.5 °F 98% 29.97 in 1.2 mi SE 3.5 mph - N/A   Overcast
7:15 AM 68.9 °F - 68.2 °F 98% 29.96 in 3.0 mi Calm Calm - N/A   Overcast
7:35 AM 68.9 °F - 68.4 °F 98% 29.97 in 7.0 mi Calm Calm - N/A   Scattered Clouds
7:55 AM 69.8 °F - 68.9 °F 97% 29.97 in 7.0 mi Calm Calm - N/A   Scattered Clouds
8:15 AM 70.5 °F - 69.4 °F 96% 29.97 in 7.0 mi Calm Calm - N/A   Scattered Clouds
8:55 AM 72.5 °F - 70.3 °F 93% 29.97 in 10.0 mi SE 4.6 mph - N/A   Clear
9:15 AM 72.7 °F - 70.0 °F 91% 29.97 in 10.0 mi Calm Calm - N/A   Clear
9:35 AM 73.9 °F - 70.3 °F 88% 29.97 in 10.0 mi SSE 3.5 mph - N/A   Clear
9:55 AM 73.9 °F - 70.2 °F 88% 29.97 in 10.0 mi South 4.6 mph - N/A   Clear
10:15 AM 74.3 °F - 70.2 °F 87% 29.97 in 10.0 mi South 3.5 mph - N/A   Clear
10:35 AM 75.0 °F - 70.2 °F 85% 29.98 in 10.0 mi South 3.5 mph - N/A   Clear
10:55 AM 75.4 °F - 70.5 °F 85% 29.98 in 10.0 mi Calm Calm - N/A   Clear
11:15 AM 75.7 °F - 70.0 °F 82% 29.98 in 10.0 mi Calm Calm - N/A   Clear
11:35 AM 75.7 °F - 70.2 °F 83% 29.97 in 10.0 mi South 4.6 mph - N/A   Clear
11:55 AM 75.9 °F - 70.0 °F 82% 29.97 in 10.0 mi South 3.5 mph - N/A   Clear
12:15 PM 76.3 °F - 70.9 °F 83% 29.97 in 10.0 mi SSE 3.5 mph - N/A   Clear
12:58 PM 78.8 °F - 71.6 °F 78% 29.95 in 10.0 mi Calm Calm - N/A   Clear
1:15 PM 79.2 °F - 70.0 °F 73% 29.95 in 10.0 mi Calm Calm - N/A   Clear
1:35 PM 80.6 °F 83.9 °F 70.0 °F 70% 29.94 in 10.0 mi Calm Calm - N/A   Clear
1:55 PM 81.1 °F 84.7 °F 70.2 °F 69% 29.93 in 10.0 mi SE 4.6 mph - N/A   Clear
2:15 PM 81.0 °F 84.4 °F 70.0 °F 69% 29.93 in 10.0 mi Calm Calm - N/A   Clear
2:35 PM 80.6 °F 83.8 °F 69.6 °F 69% 29.92 in 10.0 mi Calm Calm - N/A   Clear
2:55 PM 81.1 °F 84.2 °F 68.9 °F 66% 29.91 in 10.0 mi Calm Calm - N/A   Clear
3:15 PM 82.8 °F 86.4 °F 69.4 °F 64% 29.91 in 10.0 mi Calm Calm - N/A   Clear
3:35 PM 83.1 °F 87.6 °F 70.5 °F 66% 29.91 in 10.0 mi Calm Calm - N/A   Clear
3:55 PM 81.9 °F 85.4 °F 69.4 °F 66% 29.91 in 10.0 mi Calm Calm - N/A   Clear
4:15 PM 82.6 °F 86.4 °F 69.6 °F 65% 29.90 in 10.0 mi Calm Calm - N/A   Clear
4:35 PM 81.5 °F 84.6 °F 68.9 °F 65% 29.90 in 10.0 mi Calm Calm - N/A   Clear
4:55 PM 81.3 °F 84.8 °F 70.0 °F 68% 29.90 in 10.0 mi Calm Calm - N/A   Clear
5:15 PM 81.0 °F 84.6 °F 70.2 °F 70% 29.89 in 10.0 mi Calm Calm - N/A   Clear
5:35 PM 81.0 °F 84.4 °F 70.0 °F 69% 29.89 in 10.0 mi Calm Calm - N/A   Clear
5:55 PM 81.0 °F 84.7 °F 70.7 °F 71% 29.88 in 10.0 mi Calm Calm - N/A   Clear
6:15 PM 81.9 °F 85.2 °F 69.3 °F 65% 29.88 in 10.0 mi Calm Calm - N/A   Clear
6:35 PM 80.6 °F 84.2 °F 70.9 °F 72% 29.88 in 10.0 mi Calm Calm - N/A   Clear
6:55 PM 80.4 °F 84.2 °F 71.6 °F 74% 29.88 in 10.0 mi Calm Calm - N/A   Clear
7:15 PM 80.8 °F 84.6 °F 71.1 °F 72% 29.88 in 10.0 mi Calm Calm - N/A   Clear
7:35 PM 79.7 °F - 70.7 °F 74% 29.89 in 10.0 mi SSE 13.8 mph - N/A   Clear
7:55 PM 75.7 °F - 65.8 °F 71% 29.89 in 10.0 mi SSE 10.4 mph - N/A   Clear
8:15 PM 74.3 °F - 65.5 °F 74% 29.89 in 10.0 mi SSE 9.2 mph - N/A   Clear
8:35 PM 73.9 °F - 66.9 °F 79% 29.89 in 10.0 mi SSE 6.9 mph - N/A Thunderstorm Clear
8:55 PM 72.9 °F - 68.0 °F 85% 29.90 in 10.0 mi SSE 3.5 mph - N/A   Clear
9:15 PM 72.1 °F - 69.3 °F 91% 29.90 in 10.0 mi SSE 5.8 mph - N/A   Clear
9:35 PM 72.1 °F - 70.0 °F 93% 29.91 in 10.0 mi SSE 5.8 mph - N/A   Clear
9:55 PM 72.0 °F - 70.2 °F 94% 29.91 in 10.0 mi SE 4.6 mph - N/A   Clear
10:15 PM 71.4 °F - 69.8 °F 95% 29.90 in 10.0 mi Calm Calm - N/A   Clear
10:35 PM 71.2 °F - 69.8 °F 95% 29.89 in 10.0 mi SE 3.5 mph - N/A   Clear
10:55 PM 71.1 °F - 69.8 °F 96% 29.89 in 7.0 mi SSE 4.6 mph - N/A   Clear
11:15 PM 71.1 °F - 69.8 °F 96% 29.89 in 7.0 mi South 3.5 mph - N/A   Light Drizzle
11:35 PM 70.9 °F - 69.8 °F 96% 29.88 in 7.0 mi South 4.6 mph - N/A   Clear
11:55 PM 70.9 °F - 69.8 °F 96% 29.86 in 7.0 mi South 4.6 mph - N/A   Clear